Location: Ottawa
(45.4170°N, 75.7000°W)
Time: 11:55:31
(UTC-04:00)

Iridium 91 - Visible Passes

Search period start: 01 August 2014 00:00
Search period end: 11 August 2014 00:00
Orbit: 775 x 780 km, 86.4° (Epoch: 31 July)

Date Brightness Start Highest point End Pass type
(mag) Time Alt. Az. Time Alt. Az. Time Alt. Az.
01 Aug 8.3 03:28:11 10° ESE 03:30:32 13° ENE 03:32:54 10° NE visible
01 Aug 5.5 05:05:17 10° S 05:10:30 82° W 05:15:44 10° N visible
02 Aug 6.2 04:31:56 10° SSE 04:37:01 57° E 04:42:07 10° N visible
03 Aug 7.2 03:59:05 10° SE 04:03:39 32° E 04:08:14 10° NNE visible
04 Aug 8.0 03:26:54 10° ESE 03:30:25 19° ENE 03:33:56 10° NE visible
04 Aug 5.7 05:05:31 10° SSW 05:10:38 58° W 05:15:47 10° N visible
05 Aug 8.5 02:56:39 10° E 02:57:18 10° ENE 02:57:56 10° ENE visible
05 Aug 5.6 04:31:53 10° S 04:37:04 80° E 04:42:18 10° N visible
06 Aug 6.5 03:58:43 10° SSE 04:03:38 45° E 04:08:35 10° NNE visible
07 Aug 7.5 03:26:06 10° SE 03:30:19 26° E 03:34:34 10° NNE visible
07 Aug 6.0 05:05:56 10° SSW 05:10:49 41° W 05:15:44 10° N visible
08 Aug 8.1 02:54:18 10° ESE 02:57:08 15° ENE 02:59:58 10° NE visible
08 Aug 5.5 04:32:00 10° S 04:37:11 73° W 04:42:24 10° N visible
09 Aug 5.9 03:59:00 13° SSE 04:03:40 64° E 04:08:49 10° N visible
10 Aug 6.9 03:25:59 12° SSE 03:30:17 36° E 03:35:00 10° NNE visible
10 Aug 6.5 05:06:32 10° SW 05:11:02 29° WNW 05:15:35 10° NNW visible
